AVA225 SCNT-SCBA

Flight info

Callsign AVA225
Flight time 1h 4m
Altitude 34000
Route KOLPU3A KOLPU UQ802 SINEL UT102 SURTA SURTA4C
Aircraft A320/M-SDE3FGHIRWY/LB1

Departure

Time 2026-05-04 20:02
Airport Lieutenant Julio Gallardo Airport (SCNT)

Arrival

Time 2026-05-04 21:06
Airport Balmaceda Airport (SCBA)
Time Latitude Longitude Altitude Speed Heading
2026-05-04 19:30 -51.66912 -72.52857 232 ft 0 kts 118°
2026-05-04 19:53 -51.66909 -72.52868 231 ft 4 kts 122°
2026-05-04 19:53 -51.66892 -72.52897 231 ft 4 kts 167°
2026-05-04 19:53 -51.66879 -72.52894 231 ft 2 kts 250°
2026-05-04 19:54 -51.66879 -72.52892 231 ft 0 kts 250°
2026-05-04 19:57 -51.66882 -72.52909 231 ft 5 kts 249°
2026-05-04 19:57 -51.66924 -72.52964 231 ft 7 kts 214°
2026-05-04 19:57 -51.66942 -72.52984 231 ft 6 kts 214°
2026-05-04 19:58 -51.67003 -72.53002 232 ft 12 kts 154°
2026-05-04 19:58 -51.67062 -72.52870 231 ft 16 kts 113°
2026-05-04 19:58 -51.67110 -72.52718 232 ft 14 kts 119°
2026-05-04 19:58 -51.67161 -72.52591 232 ft 13 kts 123°
2026-05-04 19:59 -51.67205 -72.52474 232 ft 11 kts 120°
2026-05-04 19:59 -51.67248 -72.52353 232 ft 15 kts 120°
2026-05-04 19:59 -51.67307 -72.52185 231 ft 20 kts 119°
2026-05-04 19:59 -51.67380 -72.51976 231 ft 23 kts 120°
2026-05-04 20:00 -51.67450 -72.51786 231 ft 17 kts 121°
2026-05-04 20:00 -51.67530 -72.51623 233 ft 20 kts 134°
2026-05-04 20:00 -51.67570 -72.51497 231 ft 10 kts 65°
2026-05-04 20:00 -51.67533 -72.51537 231 ft 0 kts 294°
2026-05-04 20:01 -51.67491 -72.51663 231 ft 43 kts 299°
2026-05-04 20:01 -51.67198 -72.52492 234 ft 122 kts 299°
2026-05-04 20:01 -51.66688 -72.53929 495 ft 161 kts 298°
2026-05-04 20:02 -51.66144 -72.55546 1294 ft 167 kts 300°
2026-05-04 20:02 -51.65545 -72.57240 1975 ft 182 kts 300°
2026-05-04 20:02 -51.64880 -72.59095 2272 ft 202 kts 300°
2026-05-04 20:02 -51.64146 -72.61150 2587 ft 222 kts 300°
2026-05-04 20:03 -51.63337 -72.63422 2949 ft 246 kts 300°
2026-05-04 20:03 -51.62462 -72.65876 3608 ft 258 kts 300°
2026-05-04 20:03 -51.61567 -72.68388 4489 ft 260 kts 300°
2026-05-04 20:03 -51.60357 -72.70541 5338 ft 266 kts 328°
2026-05-04 20:04 -51.58604 -72.71540 6197 ft 272 kts 347°
2026-05-04 20:04 -51.56716 -72.71880 7059 ft 276 kts 354°
2026-05-04 20:04 -51.54788 -72.72002 7918 ft 279 kts 354°
2026-05-04 20:04 -51.52847 -72.72107 8734 ft 281 kts 354°
2026-05-04 20:05 -51.50891 -72.72272 9538 ft 284 kts 352°
2026-05-04 20:05 -51.48913 -72.72509 10256 ft 289 kts 351°
2026-05-04 20:05 -51.46839 -72.72855 10536 ft 311 kts 348°
2026-05-04 20:05 -51.44684 -72.73724 10745 ft 331 kts 338°
2026-05-04 20:06 -51.42530 -72.75297 10925 ft 350 kts 327°
2026-05-04 20:06 -51.40444 -72.77394 11412 ft 359 kts 326°
2026-05-04 20:06 -51.38319 -72.79534 12019 ft 365 kts 326°
2026-05-04 20:06 -51.36161 -72.81692 12609 ft 369 kts 326°
2026-05-04 20:07 -51.33968 -72.83869 13244 ft 373 kts 326°
2026-05-04 20:07 -51.31859 -72.85942 13831 ft 376 kts 327°
2026-05-04 20:07 -51.29619 -72.88133 14448 ft 380 kts 327°
2026-05-04 20:07 -51.27361 -72.90341 15037 ft 383 kts 327°
2026-05-04 20:08 -51.25086 -72.92572 15602 ft 386 kts 327°
2026-05-04 20:08 -51.22795 -72.94826 16148 ft 389 kts 327°
2026-05-04 20:08 -51.20500 -72.97131 16672 ft 392 kts 323°
2026-05-04 20:08 -51.18358 -72.99815 17167 ft 394 kts 319°
2026-05-04 20:09 -51.16231 -73.02571 17668 ft 397 kts 319°
2026-05-04 20:09 -51.14081 -73.05344 18160 ft 400 kts 320°
2026-05-04 20:09 -51.11912 -73.08135 18637 ft 403 kts 320°
2026-05-04 20:09 -51.09729 -73.10940 19115 ft 406 kts 320°
2026-05-04 20:10 -51.07526 -73.13762 19589 ft 408 kts 320°
2026-05-04 20:10 -51.05311 -73.16595 20058 ft 411 kts 320°
2026-05-04 20:10 -51.03083 -73.19440 20505 ft 413 kts 320°
2026-05-04 20:10 -51.00842 -73.22292 20937 ft 415 kts 320°
2026-05-04 20:11 -50.98586 -73.25163 21371 ft 417 kts 320°
2026-05-04 20:11 -50.96320 -73.28047 21792 ft 420 kts 320°
2026-05-04 20:11 -50.94043 -73.30945 22189 ft 422 kts 320°
2026-05-04 20:11 -50.91754 -73.33854 22579 ft 424 kts 320°
2026-05-04 20:12 -50.89453 -73.36774 22946 ft 426 kts 321°
2026-05-04 20:12 -50.87141 -73.39704 23319 ft 428 kts 321°
2026-05-04 20:12 -50.84814 -73.42653 23686 ft 430 kts 321°
2026-05-04 20:12 -50.82477 -73.45612 24048 ft 432 kts 321°
2026-05-04 20:13 -50.80736 -73.47814 24308 ft 433 kts 321°
2026-05-04 20:13 -50.78381 -73.50785 24659 ft 435 kts 321°
2026-05-04 20:13 -50.76010 -73.53771 24993 ft 437 kts 321°
2026-05-04 20:13 -50.73628 -73.56759 25314 ft 439 kts 321°
2026-05-04 20:14 -50.71231 -73.59755 25615 ft 442 kts 321°
2026-05-04 20:14 -50.68821 -73.62768 25917 ft 444 kts 321°
2026-05-04 20:14 -50.66408 -73.65789 26200 ft 446 kts 321°
2026-05-04 20:14 -50.63976 -73.68833 26488 ft 447 kts 321°
2026-05-04 20:15 -50.61540 -73.71878 26761 ft 449 kts 321°
2026-05-04 20:15 -50.59092 -73.74934 27020 ft 451 kts 321°
2026-05-04 20:15 -50.56635 -73.77997 27278 ft 453 kts 321°
2026-05-04 20:15 -50.54166 -73.81069 27613 ft 453 kts 321°
2026-05-04 20:16 -50.51705 -73.84131 27994 ft 451 kts 321°
2026-05-04 20:16 -50.49250 -73.87179 28337 ft 451 kts 321°
2026-05-04 20:16 -50.46798 -73.90221 28711 ft 449 kts 321°
2026-05-04 20:16 -50.44355 -73.93242 29067 ft 449 kts 321°
2026-05-04 20:17 -50.41898 -73.96252 29421 ft 448 kts 323°
2026-05-04 20:17 -50.39259 -73.98813 29762 ft 448 kts 333°
2026-05-04 20:17 -50.36384 -74.00646 30098 ft 448 kts 342°
2026-05-04 20:17 -50.33340 -74.01669 30428 ft 449 kts 352°
2026-05-04 20:18 -50.30224 -74.01865 30736 ft 451 kts
2026-05-04 20:18 -50.27102 -74.01463 31016 ft 451 kts
2026-05-04 20:18 -50.23977 -74.01035 31284 ft 452 kts
2026-05-04 20:18 -50.20848 -74.00615 31581 ft 452 kts
2026-05-04 20:19 -50.17716 -74.00205 31874 ft 453 kts
2026-05-04 20:19 -50.14581 -73.99799 32140 ft 453 kts
2026-05-04 20:19 -50.11445 -73.99391 32407 ft 454 kts
2026-05-04 20:19 -50.08304 -73.98981 32681 ft 454 kts
2026-05-04 20:20 -50.05167 -73.98566 32910 ft 454 kts
2026-05-04 20:20 -50.02026 -73.98153 33092 ft 455 kts
2026-05-04 20:20 -49.98878 -73.97740 33351 ft 455 kts
2026-05-04 20:20 -49.95733 -73.97327 33575 ft 455 kts
2026-05-04 20:21 -49.92579 -73.96914 33848 ft 456 kts
2026-05-04 20:21 -49.89427 -73.96501 34125 ft 456 kts
2026-05-04 20:21 -49.83114 -73.95665 34657 ft 457 kts
2026-05-04 20:22 -49.80073 -73.95262 34894 ft 457 kts
2026-05-04 20:22 -49.76907 -73.94848 35093 ft 457 kts
2026-05-04 20:22 -49.73745 -73.94439 35311 ft 457 kts
2026-05-04 20:22 -49.70577 -73.94029 35442 ft 459 kts
2026-05-04 20:23 -49.64187 -73.93204 35469 ft 463 kts
2026-05-04 20:23 -49.57778 -73.92372 35467 ft 463 kts
2026-05-04 20:24 -49.51362 -73.91537 35467 ft 464 kts
2026-05-04 20:24 -49.44946 -73.90705 35477 ft 464 kts
2026-05-04 20:25 -49.38524 -73.89887 35480 ft 465 kts
2026-05-04 20:25 -49.32097 -73.89055 35479 ft 465 kts
2026-05-04 20:26 -49.25768 -73.86879 35484 ft 472 kts 16°
2026-05-04 20:26 -49.19598 -73.83451 35480 ft 473 kts 16°
2026-05-04 20:27 -49.13424 -73.80039 35474 ft 473 kts 16°
2026-05-04 20:27 -49.07236 -73.76645 35471 ft 473 kts 15°
2026-05-04 20:28 -49.01044 -73.73261 35471 ft 474 kts 15°
2026-05-04 20:28 -48.94836 -73.69877 35478 ft 475 kts 15°
2026-05-04 20:29 -48.88628 -73.66494 35482 ft 475 kts 15°
2026-05-04 20:29 -48.82411 -73.63114 35491 ft 476 kts 15°
2026-05-04 20:30 -48.76188 -73.59738 35493 ft 476 kts 15°
2026-05-04 20:30 -48.69961 -73.56367 35503 ft 476 kts 15°
2026-05-04 20:31 -48.63725 -73.53013 35502 ft 477 kts 14°
2026-05-04 20:31 -48.57490 -73.49653 35506 ft 477 kts 14°
2026-05-04 20:32 -48.51245 -73.46305 35516 ft 478 kts 14°
2026-05-04 20:32 -48.44997 -73.42976 35520 ft 478 kts 14°
2026-05-04 20:33 -48.38736 -73.39651 35523 ft 478 kts 14°
2026-05-04 20:33 -48.33226 -73.36710 35529 ft 479 kts 14°
2026-05-04 20:34 -48.26960 -73.33375 35533 ft 479 kts 14°
2026-05-04 20:34 -48.20689 -73.30050 35536 ft 479 kts 14°
2026-05-04 20:35 -48.14419 -73.26741 35538 ft 479 kts 14°
2026-05-04 20:35 -48.08148 -73.23431 35540 ft 480 kts 14°
2026-05-04 20:36 -48.01863 -73.20133 35562 ft 480 kts 14°
2026-05-04 20:36 -47.95569 -73.16851 35562 ft 480 kts 13°
2026-05-04 20:37 -47.89271 -73.13614 35553 ft 480 kts 13°
2026-05-04 20:37 -47.82982 -73.10314 35563 ft 481 kts 13°
2026-05-04 20:38 -47.76687 -73.06990 35569 ft 481 kts 13°
2026-05-04 20:38 -47.70400 -73.03707 35570 ft 479 kts 13°
2026-05-04 20:39 -47.64105 -73.00472 35573 ft 480 kts 13°
2026-05-04 20:39 -47.57810 -72.97240 35572 ft 480 kts 13°
2026-05-04 20:40 -47.51527 -72.94007 35572 ft 481 kts 13°
2026-05-04 20:40 -47.45220 -72.90758 35572 ft 481 kts 13°
2026-05-04 20:41 -47.38909 -72.87513 35576 ft 481 kts 12°
2026-05-04 20:41 -47.32589 -72.84288 35584 ft 481 kts 12°
2026-05-04 20:42 -47.26274 -72.81068 35588 ft 481 kts 12°
2026-05-04 20:42 -47.19949 -72.77859 35598 ft 482 kts 12°
2026-05-04 20:43 -47.13619 -72.74652 35600 ft 482 kts 12°
2026-05-04 20:43 -47.07285 -72.71449 35553 ft 483 kts 12°
2026-05-04 20:44 -47.04112 -72.69851 35299 ft 483 kts 12°
2026-05-04 20:44 -47.00947 -72.68256 35051 ft 483 kts 12°
2026-05-04 20:44 -46.97775 -72.66660 34798 ft 483 kts 11°
2026-05-04 20:44 -46.94609 -72.65066 34552 ft 483 kts 11°
2026-05-04 20:45 -46.91441 -72.63472 34300 ft 483 kts 11°
2026-05-04 20:45 -46.88266 -72.61878 33813 ft 484 kts 11°
2026-05-04 20:45 -46.85062 -72.60281 32789 ft 491 kts 11°
2026-05-04 20:45 -46.81814 -72.58669 31783 ft 496 kts 11°
2026-05-04 20:46 -46.78536 -72.57042 30804 ft 500 kts 11°
2026-05-04 20:46 -46.75258 -72.55404 30050 ft 498 kts 11°
2026-05-04 20:46 -46.71979 -72.53759 29023 ft 498 kts 12°
2026-05-04 20:46 -46.68717 -72.52124 27412 ft 498 kts 12°
2026-05-04 20:47 -46.65449 -72.50493 25920 ft 494 kts 13°
2026-05-04 20:47 -46.62230 -72.48889 24617 ft 486 kts 13°
2026-05-04 20:47 -46.59078 -72.47322 23702 ft 475 kts 14°
2026-05-04 20:47 -46.55970 -72.45784 22873 ft 470 kts 14°
2026-05-04 20:48 -46.52889 -72.44267 22047 ft 467 kts 14°
2026-05-04 20:48 -46.49834 -72.42763 21269 ft 463 kts 14°
2026-05-04 20:48 -46.46800 -72.41273 20505 ft 460 kts 14°
2026-05-04 20:48 -46.43787 -72.39791 19756 ft 457 kts 14°
2026-05-04 20:49 -46.40790 -72.38319 19014 ft 454 kts 14°
2026-05-04 20:49 -46.37816 -72.36857 18275 ft 450 kts 14°
2026-05-04 20:49 -46.34870 -72.35407 17603 ft 447 kts 15°
2026-05-04 20:49 -46.31938 -72.33965 16902 ft 444 kts 14°
2026-05-04 20:50 -46.28981 -72.32945 16291 ft 432 kts
2026-05-04 20:50 -46.26047 -72.32498 16041 ft 422 kts
2026-05-04 20:50 -46.23137 -72.31977 15790 ft 422 kts
2026-05-04 20:50 -46.20237 -72.31383 15538 ft 421 kts
2026-05-04 20:51 -46.17349 -72.30756 15291 ft 420 kts
2026-05-04 20:51 -46.14467 -72.30131 15040 ft 419 kts
2026-05-04 20:51 -46.11594 -72.29532 14790 ft 417 kts
2026-05-04 20:51 -46.08729 -72.28962 14585 ft 415 kts
2026-05-04 20:52 -46.05908 -72.28414 14601 ft 400 kts
2026-05-04 20:52 -46.03213 -72.27879 14565 ft 384 kts
2026-05-04 20:52 -46.00642 -72.27365 14437 ft 363 kts
2026-05-04 20:52 -45.98215 -72.26877 14099 ft 346 kts
2026-05-04 20:53 -45.95868 -72.26414 13444 ft 338 kts
2026-05-04 20:53 -45.93567 -72.25972 12663 ft 332 kts
2026-05-04 20:53 -45.91301 -72.25435 12283 ft 332 kts
2026-05-04 20:53 -45.89089 -72.24415 11871 ft 339 kts 17°
2026-05-04 20:54 -45.86986 -72.22821 11447 ft 346 kts 28°
2026-05-04 20:54 -45.85086 -72.20703 11067 ft 349 kts 39°
2026-05-04 20:54 -45.83435 -72.18151 10557 ft 353 kts 46°
2026-05-04 20:54 -45.81881 -72.15488 10460 ft 344 kts 46°
2026-05-04 20:55 -45.80372 -72.12870 10459 ft 341 kts 49°
2026-05-04 20:55 -45.79156 -72.10010 10214 ft 333 kts 62°
2026-05-04 20:55 -45.78535 -72.07824 9827 ft 329 kts 70°
2026-05-04 20:55 -45.78033 -72.04642 9221 ft 329 kts 83°
2026-05-04 20:56 -45.77984 -72.01370 8784 ft 330 kts 95°
2026-05-04 20:56 -45.78326 -71.98133 8392 ft 329 kts 102°
2026-05-04 20:56 -45.78749 -71.94980 8312 ft 318 kts 102°
2026-05-04 20:56 -45.79128 -71.92029 8243 ft 304 kts 102°
2026-05-04 20:57 -45.79453 -71.89526 8183 ft 284 kts 102°
2026-05-04 20:57 -45.79804 -71.86794 8131 ft 275 kts 102°
2026-05-04 20:57 -45.80142 -71.84152 8082 ft 265 kts 101°
2026-05-04 20:57 -45.80466 -71.81635 8076 ft 249 kts 101°
2026-05-04 20:58 -45.80770 -71.79281 8017 ft 234 kts 102°
2026-05-04 20:58 -45.81057 -71.77061 7954 ft 221 kts 102°
2026-05-04 20:58 -45.81336 -71.74908 7712 ft 220 kts 102°
2026-05-04 20:58 -45.81615 -71.72759 7470 ft 220 kts 102°
2026-05-04 20:59 -45.81824 -71.71141 7297 ft 219 kts 101°
2026-05-04 20:59 -45.82063 -71.69290 7088 ft 219 kts 101°
2026-05-04 20:59 -45.82342 -71.67153 6841 ft 219 kts 101°
2026-05-04 20:59 -45.82621 -71.64997 6538 ft 222 kts 101°
2026-05-04 21:00 -45.82904 -71.62810 6238 ft 225 kts 101°
2026-05-04 21:00 -45.83190 -71.60606 5929 ft 226 kts 100°
2026-05-04 21:00 -45.83476 -71.58383 5621 ft 229 kts 101°
2026-05-04 21:00 -45.83763 -71.56142 5304 ft 227 kts 99°
2026-05-04 21:01 -45.84247 -71.54047 5039 ft 217 kts 120°
2026-05-04 21:01 -45.85096 -71.52360 4799 ft 204 kts 138°
2026-05-04 21:01 -45.86177 -71.51160 4569 ft 192 kts 156°
2026-05-04 21:01 -45.87367 -71.50499 4356 ft 175 kts 174°
2026-05-04 21:02 -45.88545 -71.50327 4161 ft 166 kts 190°
2026-05-04 21:02 -45.89657 -71.50570 3969 ft 159 kts 205°
2026-05-04 21:02 -45.90650 -71.51161 3805 ft 150 kts 218°
2026-05-04 21:02 -45.91413 -71.51931 3640 ft 140 kts 230°
2026-05-04 21:03 -45.92069 -71.52934 3487 ft 136 kts 240°
2026-05-04 21:03 -45.92559 -71.54082 3374 ft 135 kts 250°
2026-05-04 21:03 -45.92874 -71.55344 3251 ft 135 kts 260°
2026-05-04 21:03 -45.93003 -71.56680 3132 ft 137 kts 270°
2026-05-04 21:04 -45.92938 -71.58045 3009 ft 139 kts 282°
2026-05-04 21:04 -45.92772 -71.59403 2827 ft 138 kts 283°
2026-05-04 21:04 -45.92610 -71.60745 2633 ft 136 kts 282°
2026-05-04 21:04 -45.92449 -71.62082 2446 ft 137 kts 282°
2026-05-04 21:05 -45.92286 -71.63421 2259 ft 135 kts 282°
2026-05-04 21:05 -45.92125 -71.64746 2076 ft 135 kts 282°
2026-05-04 21:05 -45.91960 -71.66079 1902 ft 137 kts 282°
2026-05-04 21:05 -45.91785 -71.67415 1735 ft 135 kts 283°
2026-05-04 21:06 -45.91652 -71.68448 1732 ft 64 kts 278°
2026-05-04 21:06 -45.91614 -71.68747 1730 ft 17 kts 284°
2026-05-04 21:06 -45.91574 -71.68904 1731 ft 17 kts 295°
2026-05-04 21:06 -45.91524 -71.69002 1731 ft 12 kts 308°
2026-05-04 21:07 -45.91499 -71.69053 1731 ft 6 kts 304°
2026-05-04 21:07 -45.91471 -71.69105 1730 ft 8 kts 310°
2026-05-04 21:07 -45.91446 -71.69149 1729 ft 7 kts 309°
2026-05-04 21:07 -45.91412 -71.69197 1730 ft 8 kts 333°
2026-05-04 21:08 -45.91352 -71.69174 1731 ft 10 kts 31°
2026-05-04 21:08 -45.91312 -71.69139 1731 ft 6 kts 31°
2026-05-04 21:08 -45.91292 -71.69148 1731 ft 2 kts 335°
2026-05-04 21:08 -45.91284 -71.69151 1731 ft 1 kts 347°
2026-05-04 21:09 -45.91274 -71.69162 1731 ft 1 kts 308°
2026-05-04 21:09 -45.91271 -71.69171 1731 ft 1 kts 299°
2026-05-04 21:09 -45.91265 -71.69188 1731 ft 0 kts 299°